Terug naar catalogus

FENGYUN 1C DEB

ActiefSSO
NORAD 40999·DEBRIS·🇨🇳 China

Gelanceerd May 10, 1999 vanaf Taiyuan Satellite Launch Center

Loading…

Volgende Passages (komende 24 uur)

TLE

VersSource: Space-Track

Epoch: Sep 14, 2026, 10:07 UTC

1 40999U 99025EXD 26257.42211043  .00000726  00000-0  47221-3 0  9999
2 40999  99.1029 328.8122 0057701 210.8778 148.8991 14.04965814854315

Volg FENGYUN 1C DEB in realtime met AllMySat

Download on the App Store